Location: Cañada de la Miga
(34.7595°N, 106.2317°W)
Time: 11:29:20
(UTC+00:00)

Transit 4A - Pass Details

Date: 07 December 2021
Orbit: 863 x 981 km, 66.8° (Epoch: 26 January)

Event Time Altitude Azimuth Distance (km) Brightness Sun altitude
Exits shadow 12:29:36 17° 243° (WSW) 2,250 9.5 -18.0°
Drops below altitude 10° 12:32:29 10° 216° (SW) 2,723 10.1 -17.4°
Sets 12:35:55 0° 198° (SSW) 3,666 11.0 -16.7°
